This is the latest recevied weather packets stored in our database for station/object KI4HRG. If no packets are shown the sender has not sent any weather packets the latest 10 day(s).
| Time | Temp. | Humidity | Pressure | Rain* | Wind** | Luminosity | Snow |
|---|---|---|---|---|---|---|---|
| 1777593489 | 18.33° C | 63% | 1012.6 hPa | 0 mm | - | 31 W/m² | - |
| 1777593189 | 18.33° C | 61% | 1012.6 hPa | 0 mm | - | 36 W/m² | - |
| 1777592883 | 18.33° C | 63% | 1012.6 hPa | 0 mm | - | 45 W/m² | - |
| 1777592579 | 18.89° C | 61% | 1012.6 hPa | 0 mm | - | 37 W/m² | - |
| 1777592275 | 18.89° C | 63% | 1012.6 hPa | 0 mm | - | 30 W/m² | - |
| 1777591971 | 18.89° C | 62% | 1012.5 hPa | 0 mm | - | 31 W/m² | - |
| 1777591667 | 18.89° C | 63% | 1012.5 hPa | 0 mm | - | 31 W/m² | - |
| 1777591363 | 18.89° C | 64% | 1012.4 hPa | 0 mm | - | 32 W/m² | - |
| 1777591059 | 19.44° C | 62% | 1012.5 hPa | 0 mm | - | 36 W/m² | - |
| 1777590755 | 19.44° C | 61% | 1012.4 hPa | 0 mm | - | 41 W/m² | - |
| 1777590451 | 19.44° C | 63% | 1012.5 hPa | 0 mm | - | 62 W/m² | - |
| 1777590148 | 19.44° C | 61% | 1012.4 hPa | 0 mm | - | 68 W/m² | - |
| 1777589844 | 19.44° C | 60% | 1012.3 hPa | 0 mm | - | 78 W/m² | - |
| 1777589539 | 19.44° C | 59% | 1012.3 hPa | 0 mm | - | 83 W/m² | - |
| 1777589238 | 20° C | 61% | 1012.3 hPa | 0 mm | - | 68 W/m² | - |
| 1777588935 | 20° C | 59% | 1012.4 hPa | 0 mm | - | 78 W/m² | - |
| 1777588631 | 20° C | 60% | 1012.2 hPa | 0 mm | - | 102 W/m² | - |
| 1777588327 | 20.56° C | 61% | 1012.6 hPa | 0 mm | - | 118 W/m² | - |
| 1777588023 | 20.56° C | 57% | 1012.5 hPa | 0 mm | - | 124 W/m² | - |
| 1777587718 | 20.56° C | 57% | 1012.4 hPa | 0 mm | - | 131 W/m² | - |
| 1777587413 | 20.56° C | 56% | 1012.2 hPa | 0 mm | - | 159 W/m² | - |
| 1777587109 | 20.56° C | 57% | 1012.5 hPa | 0 mm | - | 149 W/m² | - |
| 1777586805 | 20.56° C | 58% | 1012.3 hPa | 0 mm | - | 141 W/m² | - |
| 1777586501 | 20.56° C | 58% | 1012.1 hPa | 0 mm | - | 158 W/m² | - |
| 1777586196 | 20.56° C | 58% | 1012 hPa | 0 mm | - | 159 W/m² | - |
* Rain latest hour (hover to see other rain measurements)
** Current wind speed in m/s (hover to see current wind gust speed)